sat.trackr.live / text

‹ back to catalog

STARLINK-3242

NORAD 49727 · 2021-115D

PAYLOAD ACTIVE UNKNOWN

§ Identity

Operator
Country
US
Launch date
2021-12-02
Launch site
AFETR
Launch vehicle
Mass (kg)
RCS (m²)

Purposes: comms

External: N2YO · Heavens-Above · Gunter

§ Orbital elements

Epoch: 2026-09-19T17:41:25.181664Z

Period
93.85 min
Inclination
53.1611°
Eccentricity
0.0001075
Mean motion
15.34391771 rev/d
Perigee alt
462.0 km
Apogee alt
463.5 km
Semi-major
6,840.9 km
B*
2.2830e-5
RAAN
353.5746°
Arg perigee
72.3275°
Mean anomaly
287.7845°
Rev number
26,488

§ Raw data

STARLINK-32421 49727U 21115D   26262.73709701  .00000395  00000+0  22830-4 0  99962 49727  53.1611 353.5746 0001075  72.3275 287.7845 15.34391771264880

JSON: /api/v1/satellites/49727 · /tle

For live sub-satellite position, see the globe view (requires WebGL).

§ Visibility from observer

Set your observer location to see the next 7 days of passes ≥ 10°. The values pass through the URL so the page stays shareable.

No JS? Fill the form by hand. The geolocation button needs JavaScript.